Flag for U.S.A. Weather past 2 weeks in Clearwater, Florida, U.S.A.

Now
58 °F

Sunny.


Feels Like: 58 °F
Forecast: 52 / 67 °F
Wind: No wind

Location: St. Petersburg / Clearwater International Airport

Current Time: Dec 18, 2014 at 9:10:22 AM

Latest Report: Dec 18, 2014 at 8:53 AM


Visibility: 10 mi

Pressure: 30.19 "Hg

Humidity: 87%

Dew point: 54 °F

Location of ClearwaterLocation

Historic Weather in Clearwater — Graph

°F

Clearwater temperature yesterday

Maximum temperature yesterday: 73 °F (at 1:53 PM)
Minimum temperature yesterday: 54 °F (at 11:53 PM)
Average temperature yesterday: 62 °F

Past Weeks' High & Low Weather Summary

 TemperatureHumidityPressure
High79 °F (Dec 3, 2:53 PM)100% (Dec 6, 9:53 PM)30.30 "Hg (Dec 6, 9:53 PM)
Low42 °F (Dec 15, 6:01 AM)31% (Dec 14, 10:53 AM)30.05 "Hg (Dec 8, 2:53 PM)
Average60 °F79%30.15 "Hg
* Reported Dec 3 7:53 AM — Dec 18 7:53 AM, Clearwater, Weather by CustomWeather, © 2014

Note: Actual official high and low records may vary slightly from our data, if they occured in-between our weather recording intervals... More about our weather records

Advertising

Clearwater weather history for previous 24 hours

 ConditionsComfort  
Time TempWeatherWind HumidityBarometerVisibility
7:53 AM
Dec 18
49 °FSunny.3 mph97%30.17 "Hg10 mi
6:53 AM48 °FClear.3 mph93%30.16 "Hg10 mi
5:56 AM47 °FClear.No wind97%30.14 "Hg10 mi
4:53 AM47 °FClear.No wind97%30.13 "Hg7 mi
4:04 AM48 °FFog.No wind100%30.14 "Hg3 mi
3:53 AM48 °FFog.No wind96%30.14 "Hg2 mi
2:53 AM50 °FClear.No wind93%30.15 "Hg10 mi
1:53 AM49 °FFog.3 mph97%30.15 "Hg4 mi
12:53 AM50 °FClear.3 mph93%30.16 "Hg10 mi
11:53 PM
Dec 17
54 °FClear.3 mph83%30.18 "Hg10 mi
10:53 PM55 °FClear.6 mph83%30.19 "Hg10 mi
9:53 PM58 °FClear.5 mph78%30.17 "Hg10 mi
8:53 PM56 °FClear.6 mph77%30.16 "Hg10 mi
7:53 PM58 °FClear.7 mph78%30.15 "Hg10 mi
6:53 PM58 °FClear.7 mph81%30.14 "Hg10 mi
5:53 PM60 °FClear.8 mph72%30.14 "Hg10 mi
4:53 PM66 °FSunny.9 mph56%30.13 "Hg10 mi
3:53 PM70 °FSunny.8 mph55%30.12 "Hg10 mi
2:53 PM73 °FSunny.9 mph51%30.12 "Hg10 mi
1:53 PM73 °FSunny.3 mph51%30.13 "Hg10 mi
12:53 PM69 °FSunny.5 mph57%30.16 "Hg10 mi
11:53 AM69 °FSunny.3 mph44%30.19 "Hg10 mi
10:53 AM67 °FSunny.3 mph66%30.22 "Hg10 mi
9:53 AM64 °FSunny.6 mph75%30.21 "Hg10 mi
9:03 AM62 °FOvercast.5 mph80%30.21 "Hg10 mi
Weather by CustomWeather, © 2014

See weather overviewHow to use our weather pages